Liberal, KS

10:31 AM CDT on July 26, 2017 (GMT -0500)
Liberal Municipal

Weather History for KLBL - July, 2013

Change the Weather History Date:

Thursday, July 4, 2013

  Actual Average Record
Temperature  
Mean Temperature 74 °F -  
Max Temperature 91 °F 94 °F 108 °F (1953)
Min Temperature 57 °F 65 °F 52 °F (1972)
Cooling Degree Days 9    
Growing Degree Days 24 (Base 50)    
Moisture  
Dew Point 47 °F    
Average Humidity 38    
Maximum Humidity 59    
Minimum Humidity 23    
Precipitation  
Precipitation 0.00 in - - ()
Sea Level Pressure  
Sea Level Pressure 29.98 in    
Wind  
Wind Speed 11 mph (South)    
Max Wind Speed 22 mph    
Max Gust Speed 31 mph    
Visibility 10 miles    
Events      
Averages and records for this station are not official NWS values.
T = Trace of Precipitation, MM = Missing Value Source: NWS Daily Summary

Daily Weather History Graph

Daily Weather History Graph

Search for Another Location

Airport or City:

Trip Planner

Search our weather history database for the weather conditions in past years. The results will help you decide how hot, cold, wet, or windy it might be!

Date:

Astronomy

Jul. 04, 2013 Rise Set
Actual Time 6:29 AM CDT 9:07 PM CDT
Civil Twilight 5:58 AM CDT 9:37 PM CDT
Nautical Twilight 5:20 AM CDT 10:15 PM CDT
Astronomical Twilight 4:38 AM CDT 10:58 PM CDT
Moon 3:45 AM CDT (7/4) 6:14 PM CDT (7/4)
Length of Visible Light 15h 38m
Length of Day
14h 37m
Waning Crescent, 11% of the Moon is Illuminated
Jul 4
Waning Crescent
Jul 8
New
Jul 15
First Quarter
Jul 22
Full
Jul 29
Last Quarter

Hourly Weather History & Observations

Time (CDT) Temp. Dew Point Humidity Pressure Visibility Wind Dir Wind Speed Gust Speed Precip Events Conditions
12:15 AM 64.4 °F 42.8 °F 45% 30.02 in 10.0 mi South 8.1 mph - N/A   Clear
12:35 AM 66.2 °F 42.8 °F 43% 30.02 in 10.0 mi South 10.4 mph - N/A   Clear
12:55 AM 64.4 °F 42.8 °F 45% 30.02 in 10.0 mi South 8.1 mph - N/A   Clear
1:15 AM 62.6 °F 42.8 °F 48% 30.02 in 10.0 mi South 8.1 mph - N/A   Clear
1:35 AM 62.6 °F 42.8 °F 48% 30.02 in 10.0 mi South 6.9 mph - N/A   Clear
1:55 AM 60.8 °F 44.6 °F 55% 30.02 in 10.0 mi South 6.9 mph - N/A   Clear
2:15 AM 62.6 °F 44.6 °F 52% 30.02 in 10.0 mi South 8.1 mph - N/A   Clear
2:35 AM 62.6 °F 44.6 °F 52% 30.01 in 10.0 mi South 8.1 mph - N/A   Partly Cloudy
2:55 AM 60.8 °F 42.8 °F 52% 30.01 in 10.0 mi South 5.8 mph - N/A   Clear
3:15 AM 60.8 °F 42.8 °F 52% 30.01 in 10.0 mi SSE 5.8 mph - N/A   Clear
3:35 AM 60.8 °F 44.6 °F 55% 30.00 in 10.0 mi SSE 5.8 mph - N/A   Clear
3:55 AM 60.8 °F 42.8 °F 52% 30.01 in 10.0 mi SE 10.4 mph - N/A   Clear
4:15 AM 60.8 °F 42.8 °F 52% 30.00 in 10.0 mi South 8.1 mph - N/A   Clear
4:35 AM 60.8 °F 42.8 °F 52% 30.00 in 10.0 mi SSE 8.1 mph - N/A   Clear
4:55 AM 59.0 °F 42.8 °F 55% 30.00 in 10.0 mi SSE 6.9 mph - N/A   Clear
5:15 AM 57.2 °F 42.8 °F 59% 30.00 in 10.0 mi South 8.1 mph - N/A   Clear
5:35 AM 57.2 °F 42.8 °F 59% 30.00 in 10.0 mi South 8.1 mph - N/A   Clear
5:55 AM 57.2 °F 42.8 °F 59% 30.00 in 10.0 mi South 8.1 mph - N/A   Clear
6:15 AM 57.2 °F 42.8 °F 59% 30.01 in 10.0 mi South 5.8 mph - N/A   Clear
6:35 AM 57.2 °F 42.8 °F 59% 30.01 in 10.0 mi South 6.9 mph - N/A   Clear
6:55 AM 57.2 °F 42.8 °F 59% 30.01 in 10.0 mi South 8.1 mph - N/A   Clear
7:15 AM 59.0 °F 44.6 °F 59% 30.00 in 10.0 mi South 6.9 mph - N/A   Clear
7:35 AM 62.6 °F 44.6 °F 52% 30.01 in 10.0 mi South 8.1 mph - N/A   Clear
7:55 AM 64.4 °F 46.4 °F 52% 30.01 in 10.0 mi South 12.7 mph - N/A   Clear
8:15 AM 66.2 °F 46.4 °F 49% 30.02 in 10.0 mi South 10.4 mph - N/A   Clear
8:35 AM 69.8 °F 46.4 °F 43% 30.02 in 10.0 mi South 15.0 mph - N/A   Clear
8:55 AM 69.8 °F 46.4 °F 43% 30.01 in 10.0 mi South 17.3 mph - N/A   Clear
9:15 AM 71.6 °F 46.4 °F 41% 30.02 in 10.0 mi South 17.3 mph - N/A   Clear
9:35 AM 73.4 °F 46.4 °F 38% 30.02 in 10.0 mi South 18.4 mph - N/A   Clear
9:55 AM 75.2 °F 48.2 °F 38% 30.02 in 10.0 mi SSW 15.0 mph - N/A   Clear
10:15 AM 77.0 °F 48.2 °F 36% 30.02 in 10.0 mi SSW 18.4 mph - N/A   Clear
10:35 AM 78.8 °F 48.2 °F 34% 30.02 in 10.0 mi South 17.3 mph - N/A   Clear
10:55 AM 78.8 °F 48.2 °F 34% 30.02 in 10.0 mi SSW 10.4 mph - N/A   Clear
11:15 AM 80.6 °F 50.0 °F 34% 30.02 in 10.0 mi SW 13.8 mph - N/A   Clear
11:35 AM 80.6 °F 50.0 °F 34% 30.02 in 10.0 mi South 12.7 mph 18.4 mph N/A   Clear
11:55 AM 82.4 °F 50.0 °F 32% 30.01 in 10.0 mi SW 10.4 mph 23.0 mph N/A   Clear
12:15 PM 84.2 °F 50.0 °F 30% 30.01 in 10.0 mi South 17.3 mph 23.0 mph N/A   Clear
12:35 PM 84.2 °F 50.0 °F 30% 30.01 in 10.0 mi South 15.0 mph 24.2 mph N/A   Clear
12:55 PM 86.0 °F 50.0 °F 29% 30.00 in 10.0 mi South 21.9 mph 25.3 mph N/A   Clear
1:15 PM 87.8 °F 51.8 °F 29% 29.99 in 10.0 mi SW 20.7 mph 26.5 mph N/A   Clear
1:35 PM 87.8 °F 50.0 °F 27% 29.99 in 10.0 mi SSW 19.6 mph 25.3 mph N/A   Clear
1:55 PM 87.8 °F 50.0 °F 27% 29.98 in 10.0 mi SSW 21.9 mph 25.3 mph N/A   Clear
2:15 PM 87.8 °F 51.8 °F 29% 29.97 in 10.0 mi SSW 19.6 mph 24.2 mph N/A   Clear
2:35 PM 89.6 °F 51.8 °F 27% 29.97 in 10.0 mi SSW 15.0 mph 26.5 mph N/A   Clear
2:55 PM 89.6 °F 51.8 °F 27% 29.96 in 10.0 mi SSW 16.1 mph 26.5 mph N/A   Clear
3:15 PM 89.6 °F 50.0 °F 26% 29.96 in 10.0 mi SSW 18.4 mph 27.6 mph N/A   Clear
3:35 PM 89.6 °F 50.0 °F 26% 29.95 in 10.0 mi SSW 18.4 mph 25.3 mph N/A   Clear
3:55 PM 89.6 °F 50.0 °F 26% 29.94 in 10.0 mi South 19.6 mph 25.3 mph N/A   Clear
4:15 PM 89.6 °F 48.2 °F 24% 29.94 in 10.0 mi SW 17.3 mph 21.9 mph N/A   Scattered Clouds
4:35 PM 89.6 °F 48.2 °F 24% 29.94 in 10.0 mi SSW 17.3 mph 23.0 mph N/A   Partly Cloudy
4:55 PM 91.4 °F 51.8 °F 26% 29.93 in 10.0 mi SSW 16.1 mph 27.6 mph N/A   Scattered Clouds
5:15 PM 91.4 °F 50.0 °F 24% 29.93 in 10.0 mi SSW 19.6 mph 24.2 mph N/A   Mostly Cloudy
5:35 PM 91.4 °F 48.2 °F 23% 29.93 in 10.0 mi SSW 16.1 mph 21.9 mph N/A   Scattered Clouds
5:55 PM 91.4 °F 48.2 °F 23% 29.91 in 10.0 mi SW 15.0 mph - N/A   Clear
6:15 PM 91.4 °F 48.2 °F 23% 29.91 in 10.0 mi SSW 17.3 mph 31.1 mph N/A   Partly Cloudy
6:35 PM 89.6 °F 48.2 °F 24% 29.91 in 10.0 mi SSW 17.3 mph - N/A   Scattered Clouds
6:55 PM 89.6 °F 48.2 °F 24% 29.91 in 10.0 mi SSW 16.1 mph - N/A   Partly Cloudy
7:15 PM 89.6 °F 48.2 °F 24% 29.91 in 10.0 mi South 12.7 mph - N/A   Clear
7:35 PM 89.6 °F 48.2 °F 24% 29.91 in 10.0 mi South 15.0 mph - N/A   Clear
7:55 PM 87.8 °F 48.2 °F 25% 29.91 in 10.0 mi South 12.7 mph - N/A   Clear
8:15 PM 86.0 °F 48.2 °F 27% 29.91 in 10.0 mi South 9.2 mph - N/A   Clear
8:35 PM 84.2 °F 48.2 °F 29% 29.91 in 10.0 mi South 9.2 mph - N/A   Clear
8:55 PM 82.4 °F 46.4 °F 28% 29.91 in 10.0 mi South 8.1 mph - N/A   Clear
9:15 PM 78.8 °F 46.4 °F 32% 29.91 in 10.0 mi SSE 8.1 mph - N/A   Clear
9:35 PM 78.8 °F 46.4 °F 32% 29.92 in 10.0 mi SSE 11.5 mph - N/A   Clear
9:55 PM 78.8 °F 48.2 °F 34% 29.93 in 10.0 mi South 10.4 mph - N/A   Clear
10:15 PM 75.2 °F 48.2 °F 38% 29.93 in 10.0 mi SSE 8.1 mph - N/A   Clear
10:35 PM 75.2 °F 48.2 °F 38% 29.94 in 10.0 mi SSE 9.2 mph - N/A   Clear
10:55 PM 73.4 °F 46.4 °F 38% 29.95 in 10.0 mi SSE 8.1 mph - N/A   Clear
11:15 PM 71.6 °F 48.2 °F 43% 29.95 in 10.0 mi SE 8.1 mph - N/A   Clear
11:35 PM 71.6 °F 46.4 °F 41% 29.95 in 10.0 mi SE 8.1 mph - N/A   Clear
11:55 PM 75.2 °F 48.2 °F 38% 29.96 in 10.0 mi SSE 11.5 mph - N/A   Clear